Cameron, WI

11:23 AM CST on December 07, 2016 (GMT -0600)
Rice Lake Regional-Carl's

Weather History for KRPD - January, 2013

Change the Weather History Date:

Monday, January 14, 2013

  Actual Average Record
Temperature  
Mean Temperature 6 °F -  
Max Temperature 12 °F 19 °F 24 °F (2016)
Min Temperature 1 °F 3 °F 10 °F (2016)
Degree Days  
Heating Degree Days 58    
Moisture  
Dew Point 1 °F    
Average Humidity 79    
Maximum Humidity 92    
Minimum Humidity 62    
Precipitation  
Precipitation 0.00 in - - ()
Sea Level Pressure  
Sea Level Pressure 30.31 in    
Wind  
Wind Speed 3 mph (SW)    
Max Wind Speed 12 mph    
Max Gust Speed -    
Visibility 10 miles    
Events Snow    
Averages and records for this station are not official NWS values.
T = Trace of Precipitation, MM = Missing Value Source: NWS Daily Summary

Daily Weather History Graph

Daily Weather History Graph

Search for Another Location

Airport or City:

Trip Planner

Search our weather history database for the weather conditions in past years. The results will help you decide how hot, cold, wet, or windy it might be!

Date:

Astronomy

Jan. 14, 2013 Rise Set
Actual Time 7:43 AM CST 4:49 PM CST
Civil Twilight 7:10 AM CST 5:22 PM CST
Nautical Twilight 6:33 AM CST 5:59 PM CST
Astronomical Twilight 5:58 AM CST 6:34 PM CST
Moon 9:05 AM CST (1/14) 8:48 PM CST (1/14)
Length of Visible Light 10h 12m
Length of Day
9h 06m
Waxing Crescent, 11% of the Moon is Illuminated
Jan 14
Waxing Crescent
Jan 18
First Quarter
Jan 26
Full
Feb 3
Last Quarter
Feb 10
New

Hourly Weather History & Observations

Time (CST) Temp. Windchill Dew Point Humidity Pressure Visibility Wind Dir Wind Speed Gust Speed Precip Events Conditions
12:35 AM 3.2 °F - -0.4 °F 85% 30.20 in 10.0 mi Calm Calm - N/A   Clear
12:55 AM 3.2 °F -6.2 °F -0.4 °F 85% 30.20 in 10.0 mi WSW 4.6 mph - N/A   Clear
1:15 AM 3.2 °F -7.8 °F -0.4 °F 85% 30.20 in 10.0 mi WSW 5.8 mph - N/A   Clear
1:35 AM 3.2 °F -6.2 °F -0.4 °F 85% 30.21 in 10.0 mi WSW 4.6 mph - N/A   Clear
2:35 AM 3.2 °F - -0.4 °F 85% 30.23 in 10.0 mi Calm Calm - N/A   Clear
2:55 AM 3.2 °F - -0.4 °F 85% 30.23 in 10.0 mi Calm Calm - N/A   Clear
3:15 AM 3.2 °F - -0.4 °F 85% 30.23 in 10.0 mi Calm Calm - N/A   Clear
3:35 AM 3.2 °F - -0.4 °F 85% 30.23 in 10.0 mi Calm Calm - N/A   Clear
4:15 AM 1.4 °F - -2.2 °F 85% 30.24 in 10.0 mi Calm Calm - N/A   Clear
4:35 AM 3.2 °F - -0.4 °F 85% 30.23 in 10.0 mi Calm Calm - N/A   Clear
4:55 AM 3.2 °F - -0.4 °F 85% 30.23 in 10.0 mi Calm Calm - N/A   Clear
5:15 AM 1.4 °F -6.2 °F -4.0 °F 78% 30.23 in 10.0 mi South 3.5 mph - N/A   Clear
5:35 AM 1.4 °F - -4.0 °F 78% 30.25 in 10.0 mi Calm Calm - N/A   Clear
5:55 AM 1.4 °F - -2.2 °F 85% 30.26 in 10.0 mi Calm Calm - N/A   Clear
6:15 AM 1.4 °F - -2.2 °F 85% 30.27 in 10.0 mi Calm Calm - N/A   Clear
6:35 AM 3.2 °F - -0.4 °F 85% 30.28 in 10.0 mi Calm Calm - N/A   Clear
6:55 AM 1.4 °F - -0.4 °F 92% 30.29 in 10.0 mi Calm Calm - N/A   Clear
7:15 AM 3.2 °F - -0.4 °F 85% 30.29 in 7.0 mi Calm Calm - N/A Snow Light Snow
7:35 AM 3.2 °F - -0.4 °F 85% 30.30 in 2.5 mi Calm Calm - N/A Snow Light Snow
7:55 AM 3.2 °F - -0.4 °F 85% 30.30 in 4.0 mi Calm Calm - N/A Snow Light Snow
8:15 AM 3.2 °F -4.2 °F -0.4 °F 85% 30.32 in 10.0 mi South 3.5 mph - N/A   Scattered Clouds
8:35 AM 3.2 °F -4.2 °F -0.4 °F 85% 30.33 in 10.0 mi SSW 3.5 mph - N/A   Clear
8:55 AM 3.2 °F - -0.4 °F 85% 30.33 in 10.0 mi Calm Calm - N/A Snow Light Snow
9:15 AM 5.0 °F -4.1 °F 1.4 °F 85% 30.34 in 10.0 mi SSW 4.6 mph - N/A   Clear
9:35 AM 5.0 °F -4.1 °F 1.4 °F 85% 30.34 in 10.0 mi SW 4.6 mph - N/A   Scattered Clouds
10:15 AM 6.8 °F -3.5 °F 1.4 °F 79% 30.35 in 4.0 mi WSW 5.8 mph - N/A   Haze
10:35 AM 8.6 °F -1.3 °F 3.2 °F 79% 30.35 in 5.0 mi WSW 5.8 mph - N/A Snow Light Snow
10:55 AM 8.6 °F -4.7 °F 1.4 °F 73% 30.35 in 10.0 mi WSW 9.2 mph - N/A   Mostly Cloudy
11:15 AM 8.6 °F -3.7 °F 1.4 °F 73% 30.35 in 10.0 mi WSW 8.1 mph - N/A   Scattered Clouds
11:35 AM 10.4 °F -2.4 °F 3.2 °F 73% 30.35 in 7.0 mi West 9.2 mph - N/A Snow Light Snow
11:55 AM 8.6 °F -6.3 °F 1.4 °F 73% 30.34 in 10.0 mi WSW 11.5 mph - N/A   Overcast
12:15 PM 8.6 °F -4.7 °F 3.2 °F 79% 30.34 in 10.0 mi SW 9.2 mph - N/A   Overcast
12:35 PM 10.4 °F -1.5 °F 1.4 °F 67% 30.33 in 10.0 mi West 8.1 mph - N/A   Mostly Cloudy
12:55 PM 10.4 °F -2.4 °F 1.4 °F 67% 30.33 in 10.0 mi WSW 9.2 mph - N/A   Scattered Clouds
1:15 PM 12.2 °F 0.7 °F 3.2 °F 67% 30.32 in 10.0 mi WSW 8.1 mph - N/A   Mostly Cloudy
1:55 PM 10.4 °F -0.4 °F 3.2 °F 73% 30.33 in 10.0 mi West 6.9 mph - N/A   Scattered Clouds
2:15 PM 12.2 °F 1.7 °F 3.2 °F 67% 30.33 in 10.0 mi WSW 6.9 mph - N/A   Mostly Cloudy
2:35 PM 12.2 °F 0.7 °F 3.2 °F 67% 30.34 in 10.0 mi WSW 8.1 mph - N/A   Mostly Cloudy
2:55 PM 12.2 °F 0.7 °F 3.2 °F 67% 30.34 in 10.0 mi WSW 8.1 mph - N/A   Mostly Cloudy
3:15 PM 12.2 °F 1.7 °F 3.2 °F 67% 30.35 in 10.0 mi WSW 6.9 mph - N/A   Mostly Cloudy
3:35 PM 12.2 °F 1.7 °F 3.2 °F 67% 30.34 in 10.0 mi SW 6.9 mph - N/A   Mostly Cloudy
4:15 PM 12.2 °F 2.9 °F 1.4 °F 62% 30.35 in 10.0 mi WSW 5.8 mph - N/A   Clear
4:35 PM 10.4 °F -0.4 °F 1.4 °F 67% 30.35 in 10.0 mi WSW 6.9 mph - N/A   Clear
4:55 PM 10.4 °F 4.0 °F 1.4 °F 67% 30.35 in 10.0 mi WSW 3.5 mph - N/A   Clear
5:15 PM 10.4 °F - 1.4 °F 67% 30.35 in 10.0 mi Calm Calm - N/A   Clear
5:35 PM 8.6 °F - 1.4 °F 73% 30.35 in 10.0 mi Calm Calm - N/A   Clear
5:55 PM 8.6 °F - 1.4 °F 73% 30.35 in 10.0 mi Calm Calm - N/A   Clear
6:15 PM 8.6 °F - 1.4 °F 73% 30.35 in 10.0 mi Calm Calm - N/A   Clear
6:35 PM 6.8 °F - 1.4 °F 79% 30.35 in 10.0 mi Calm Calm - N/A   Clear
6:55 PM 8.6 °F - 1.4 °F 73% 30.35 in 10.0 mi Calm Calm - N/A   Clear
7:15 PM 5.0 °F - -0.4 °F 78% 30.35 in 10.0 mi Calm Calm - N/A   Clear
7:35 PM 5.0 °F - 1.4 °F 85% 30.35 in 10.0 mi Calm Calm - N/A   Clear
7:55 PM 5.0 °F - 1.4 °F 85% 30.35 in 10.0 mi Calm Calm - N/A   Clear
8:15 PM 3.2 °F - -0.4 °F 85% 30.34 in 10.0 mi Calm Calm - N/A   Scattered Clouds
8:35 PM 3.2 °F - -0.4 °F 85% 30.33 in 10.0 mi Calm Calm - N/A   Scattered Clouds
8:55 PM 5.0 °F - 1.4 °F 85% 30.31 in 10.0 mi Calm Calm - N/A   Mostly Cloudy
9:15 PM 5.0 °F - 1.4 °F 85% 30.34 in 10.0 mi Calm Calm - N/A   Overcast
9:35 PM 5.0 °F - 1.4 °F 85% 30.33 in 10.0 mi Calm Calm - N/A   Overcast
9:55 PM 6.8 °F - 1.4 °F 79% 30.32 in 10.0 mi Calm Calm - N/A   Overcast
10:15 PM 6.8 °F -0.1 °F 3.2 °F 85% 30.30 in 10.0 mi East 3.5 mph - N/A   Overcast
10:35 PM 8.6 °F - 3.2 °F 79% 30.31 in 10.0 mi Calm Calm - N/A   Overcast
10:55 PM 8.6 °F - 3.2 °F 79% 30.32 in 10.0 mi Calm Calm - N/A   Overcast
11:15 PM 8.6 °F - 3.2 °F 79% 30.31 in 10.0 mi Calm Calm - N/A   Overcast
11:35 PM 8.6 °F - 3.2 °F 79% 30.31 in 10.0 mi Calm Calm - N/A   Overcast
11:55 PM 8.6 °F 2.0 °F 3.2 °F 79% 30.30 in 10.0 mi ESE 3.5 mph - N/A   Overcast